Oelwein, IA

3:39 AM CST on November 17, 2019 (GMT -0600)
Oelwein Municipal

Weather History for KOLZ - September, 2019

Change the Weather History Date:

Sunday, September 22, 2019

  Actual Average Record
Temperature  
Mean Temperature 63 °F -  
Max Temperature 71 °F 67 °F 93 °F (2017)
Min Temperature 53 °F 46 °F 25 °F (1974)
Degree Days  
Heating Degree Days 2    
Growing Degree Days 13 (Base 50)    
Moisture  
Dew Point 64 °F    
Average Humidity 96    
Maximum Humidity 100    
Minimum Humidity 73    
Precipitation  
Precipitation 0.92 in - - ()
Sea Level Pressure  
Sea Level Pressure 29.88 in    
Wind  
Wind Speed 8 mph (West)    
Max Wind Speed 20 mph    
Max Gust Speed 28 mph    
Visibility 9 miles    
Events      
Averages and records for this station are not official NWS values.
T = Trace of Precipitation, MM = Missing Value Source: NWS Daily Summary

Daily Weather History Graph

Daily Weather History Graph

Search for Another Location

Airport or City:

Astronomy

Sep. 22, 2019 Rise Set
Actual Time 6:55 AM CDT 7:05 PM CDT
Civil Twilight 6:26 AM CDT 7:33 PM CDT
Nautical Twilight 5:53 AM CDT 8:06 PM CDT
Astronomical Twilight 5:19 AM CDT 8:40 PM CDT
Moon No Moon Rise 3:09 PM CDT (9/22)
Length of Visible Light 13h 06m
Length of Day
12h 10m
Last Quarter, 44% of the Moon is Illuminated
Sep 22
Last Quarter
Sep 28
New
Oct 5
First Quarter
Oct 13
Full
Oct 21
Last Quarter

Hourly Weather History & Observations

Time (CDT) Temp. Dew Point Humidity Pressure Visibility Wind Dir Wind Speed Gust Speed Precip Events Conditions
12:15 AM 71.6 °F 71.6 °F 100% 29.92 in 10.0 mi SSW 11.5 mph - N/A   Overcast
12:35 AM 71.6 °F 71.6 °F 100% 29.91 in 10.0 mi South 15.0 mph - N/A   Overcast
12:55 AM 71.6 °F 71.6 °F 100% 29.90 in 10.0 mi SSW 11.5 mph - N/A   Overcast
1:15 AM 71.6 °F 71.6 °F 100% 29.90 in 10.0 mi SSW 9.2 mph - N/A   Overcast
1:35 AM 71.6 °F 71.6 °F 100% 29.88 in 10.0 mi South 10.4 mph - N/A   Overcast
1:55 AM 71.6 °F 71.6 °F 100% 29.88 in 6.0 mi SSW 6.9 mph - N/A   Overcast
2:15 AM 71.6 °F 71.6 °F 100% 29.87 in 4.0 mi SSW 5.8 mph - N/A   Overcast
2:35 AM 71.6 °F 71.6 °F 100% 29.85 in 6.0 mi Calm Calm - N/A   Overcast
2:55 AM 71.6 °F 71.6 °F 100% 29.86 in 5.0 mi Calm Calm - 0.05 in   Overcast
3:15 AM 69.8 °F 69.8 °F 100% 29.87 in 3.0 mi SSW 10.4 mph - N/A   Overcast
3:35 AM 68.0 °F 68.0 °F 100% 29.88 in 1.2 mi SW 8.1 mph 21.9 mph N/A   Overcast
3:55 AM 68.0 °F 68.0 °F 100% 29.88 in 5.0 mi West 11.5 mph - 0.63 in   Overcast
4:15 AM 68.0 °F 68.0 °F 100% 29.86 in 9.0 mi WNW 9.2 mph - N/A   Overcast
4:35 AM 68.0 °F 68.0 °F 100% 29.86 in 10.0 mi WNW 6.9 mph - N/A   Overcast
4:55 AM 68.0 °F 68.0 °F 100% 29.86 in 9.0 mi West 4.6 mph - 0.06 in   Overcast
5:15 AM 66.2 °F 66.2 °F 100% 29.86 in 6.0 mi SW 4.6 mph - N/A   Overcast
5:35 AM 66.2 °F 66.2 °F 100% 29.86 in 9.0 mi SSW 3.5 mph - N/A   Overcast
5:55 AM 66.2 °F 66.2 °F 100% 29.86 in 10.0 mi WSW 3.5 mph - 0.03 in   Mostly Cloudy
6:15 AM - - N/A% 29.86 in 6.0 mi SW 5.8 mph - N/A   Overcast
6:35 AM 62.6 °F 62.6 °F 100% 29.84 in 8.0 mi SE 4.6 mph - N/A   Overcast
6:55 AM 59.0 °F 59.0 °F 100% 29.86 in 9.0 mi South 8.1 mph - 0.04 in   Mostly Cloudy
7:15 AM 64.4 °F 64.4 °F 100% 29.83 in 9.0 mi SE 3.5 mph - N/A   Mostly Cloudy
7:35 AM 64.4 °F 64.4 °F 100% 29.85 in 6.0 mi WSW 4.6 mph - N/A   Scattered Clouds
7:55 AM 66.2 °F 66.2 °F 100% 29.87 in 9.0 mi West 6.9 mph - 0.03 in   Mostly Cloudy
8:15 AM 64.4 °F 64.4 °F 100% 29.86 in 10.0 mi SSW 6.9 mph - N/A   Mostly Cloudy
8:35 AM 64.4 °F 64.4 °F 100% 29.88 in 10.0 mi WSW 10.4 mph - N/A   Overcast
8:55 AM 66.2 °F 66.2 °F 100% 29.89 in 10.0 mi SW 6.9 mph - N/A   Overcast
9:15 AM 66.2 °F 66.2 °F 100% 29.89 in 10.0 mi SSW 5.8 mph - N/A   Overcast
9:35 AM 66.2 °F 66.2 °F 100% 29.88 in 10.0 mi SW 5.8 mph - N/A   Mostly Cloudy
9:55 AM 66.2 °F 66.2 °F 100% 29.88 in 10.0 mi SW 4.6 mph - N/A   Mostly Cloudy
10:15 AM 68.0 °F 68.0 °F 100% 29.89 in 10.0 mi West 4.6 mph - N/A   Mostly Cloudy
10:35 AM 66.2 °F 66.2 °F 100% 29.88 in 10.0 mi Variable 4.6 mph - N/A   Mostly Cloudy
10:55 AM 60.8 °F 60.8 °F 100% 29.88 in 10.0 mi West 8.1 mph - N/A   Mostly Cloudy
11:15 AM 68.0 °F 68.0 °F 100% 29.87 in 10.0 mi West 6.9 mph - N/A   Mostly Cloudy
11:35 AM 68.0 °F 68.0 °F 100% 29.88 in 10.0 mi West 8.1 mph - N/A   Overcast
11:55 AM 68.0 °F 68.0 °F 100% 29.88 in 6.0 mi NNW 8.1 mph - 0.01 in   Overcast
12:15 PM 66.2 °F 66.2 °F 100% 29.88 in 6.0 mi NNW 6.9 mph 13.8 mph N/A   Scattered Clouds
12:35 PM 66.2 °F 66.2 °F 100% 29.88 in 9.0 mi Calm Calm - N/A   Partly Cloudy
12:55 PM 66.2 °F 66.2 °F 100% 29.87 in 10.0 mi Calm Calm - 0.02 in   Clear
1:15 PM 68.0 °F 66.2 °F 94% 29.87 in 10.0 mi NNW 4.6 mph - N/A   Clear
1:55 PM 68.0 °F 66.2 °F 94% 29.83 in 10.0 mi SSE 12.7 mph - N/A   Partly Cloudy
2:15 PM 66.2 °F 64.4 °F 94% 29.81 in 10.0 mi SE 6.9 mph 16.1 mph N/A   Partly Cloudy
2:35 PM 68.0 °F 64.4 °F 88% 29.85 in 10.0 mi WNW 4.6 mph - N/A   Mostly Cloudy
2:55 PM 69.8 °F 62.6 °F 78% 29.84 in 10.0 mi Calm Calm - N/A   Partly Cloudy
3:15 PM 69.8 °F 62.6 °F 78% 29.84 in 10.0 mi Calm Calm - N/A   Clear
3:35 PM 69.8 °F 62.6 °F 78% 29.84 in 10.0 mi Calm Calm - N/A   Scattered Clouds
3:55 PM 69.8 °F 62.6 °F 78% 29.84 in 10.0 mi South 5.8 mph - N/A   Overcast
4:15 PM 69.8 °F 60.8 °F 73% 29.83 in 10.0 mi Calm Calm - N/A   Overcast
4:35 PM 69.8 °F 62.6 °F 78% 29.85 in 10.0 mi WSW 5.8 mph - N/A   Overcast
4:55 PM 69.8 °F 60.8 °F 73% 29.82 in 10.0 mi North 4.6 mph - N/A   Mostly Cloudy
5:15 PM 69.8 °F 62.6 °F 78% 29.83 in 10.0 mi WNW 5.8 mph - N/A   Mostly Cloudy
5:35 PM 68.0 °F 64.4 °F 88% 29.85 in 10.0 mi WNW 6.9 mph - N/A   Overcast
5:55 PM 66.2 °F 62.6 °F 88% 29.86 in 10.0 mi NW 16.1 mph - N/A   Overcast
6:15 PM 64.4 °F 62.6 °F 94% 29.87 in 5.0 mi NW 10.4 mph 19.6 mph N/A   Overcast
6:35 PM 64.4 °F 62.6 °F 94% 29.87 in 10.0 mi NW 10.4 mph - N/A   Overcast
6:55 PM 62.6 °F 62.6 °F 100% 29.89 in 10.0 mi NW 17.3 mph 24.2 mph N/A   Overcast
7:15 PM 62.6 °F 60.8 °F 94% 29.90 in 9.0 mi NNW 19.6 mph 27.6 mph N/A   Overcast
7:35 PM 59.0 °F 59.0 °F 100% 29.92 in 10.0 mi NW 16.1 mph - N/A   Overcast
7:55 PM 59.0 °F 59.0 °F 100% 29.92 in 3.0 mi North 11.5 mph - 0.02 in   Overcast
8:15 PM 57.2 °F 57.2 °F 100% 29.91 in 4.0 mi North 10.4 mph - N/A   Mostly Cloudy
8:35 PM 57.2 °F 57.2 °F 100% 29.92 in 9.0 mi North 8.1 mph - N/A   Mostly Cloudy
8:55 PM 57.2 °F 57.2 °F 100% 29.93 in 10.0 mi NNW 5.8 mph - 0.02 in   Overcast
9:15 PM 57.2 °F 57.2 °F 100% 29.94 in 10.0 mi NW 4.6 mph - N/A   Overcast
9:35 PM 57.2 °F 57.2 °F 100% 29.95 in 10.0 mi WNW 4.6 mph - N/A   Scattered Clouds
9:55 PM 57.2 °F 57.2 °F 100% 29.95 in 10.0 mi WNW 6.9 mph - 0.01 in   Partly Cloudy
10:15 PM 57.2 °F 57.2 °F 100% 29.96 in 10.0 mi WNW 6.9 mph - N/A   Partly Cloudy
10:35 PM 55.4 °F 55.4 °F 100% 29.96 in 10.0 mi WNW 5.8 mph - N/A   Clear
10:55 PM 55.4 °F 55.4 °F 100% 29.95 in 10.0 mi WNW 5.8 mph - N/A   Clear
11:15 PM 55.4 °F 55.4 °F 100% 29.95 in 10.0 mi WNW 5.8 mph - N/A   Clear
11:35 PM - - N/A% 29.96 in 10.0 mi WNW 6.9 mph - N/A   Clear
11:55 PM 53.6 °F 53.6 °F 100% 29.96 in 10.0 mi WNW 5.8 mph - N/A   Clear